Volver al catálogo

CZ-6A DEB

ActivoPO
NORAD 60686·DEBRIS·🇨🇳 China

Lanzado Aug 6, 2024 desde Taiyuan Satellite Launch Center

Loading…

Próximos Pases (próximas 24 horas)

TLE

ActualizadoSource: Space-Track

Época: Sep 14, 2026, 10:41 UTC

1 60686U 24140CP  26257.44551789  .00001444  00000-0  43305-3 0  9993
2 60686  88.9786 260.0893 0048048 306.0500  53.6255 14.41681151110246

Sigue CZ-6A DEB en tiempo real con AllMySat

Download on the App Store